| time (UTC) | temp C | wind direction | speed KPH | gust KPH | rain 1hr cm | rain 24hr cm | rain mn cm | humidity % | barometer mb |
| 20260507070000 | 11 | 312 | 0.0 | 0.0 | 0.00 | 0.00 | 0.00 | 92 | 1006.5 |
| 20260507064500 | 11 | 255 | 0.0 | 11.3 | 0.00 | 0.00 | 0.00 | 90 | 1006.5 |
| 20260507063058 | 11 | 326 | 0.0 | 4.8 | 0.00 | 0.00 | 0.00 | 89 | 1005.3 |
| 20260507061558 | 11 | 346 | 0.0 | 3.2 | 0.00 | 0.00 | 0.00 | 89 | 1004.9 |
| 20260507060101 | 11 | 347 | 0.0 | 0.0 | 0.00 | 0.00 | 0.00 | 90 | 1005.0 |
| 20260507054609 | 11 | 25 | 0.0 | 1.6 | 0.00 | 0.00 | 0.00 | 89 | 1005.0 |
| 20260507053058 | 11 | 299 | 0.0 | 0.0 | 0.00 | 0.00 | 0.00 | 89 | 1005.5 |
| 20260507051551 | 10 | 81 | 0.0 | 0.0 | 0.00 | 0.00 | 0.00 | 88 | 1005.2 |
| 20260507050049 | 10 | 88 | 0.0 | 0.0 | 0.00 | 0.00 | 0.00 | 88 | 1005.2 |
| 20260507044543 | 10 | 89 | 0.0 | 0.0 | 0.00 | 0.00 | 0.00 | 89 | 1005.3 |
| 20260507043035 | 10 | 77 | 0.0 | 0.0 | 0.00 | 0.00 | 0.00 | 92 | 1005.3 |
| 20260507041534 | 9 | 75 | 0.0 | 0.0 | 0.00 | 0.00 | 0.00 | 93 | 1005.2 |
| 20260507040038 | 8 | 75 | 0.0 | 0.0 | 0.00 | 0.00 | 0.00 | 93 | 1005.2 |
| 20260507034531 | 8 | 54 | 0.0 | 0.0 | 0.00 | 0.00 | 0.00 | 93 | 1005.0 |
| 20260507033029 | 8 | 54 | 0.0 | 0.0 | 0.00 | 0.00 | 0.00 | 93 | 1005.2 |
| 20260507031528 | 7 | 54 | 0.0 | 0.0 | 0.00 | 0.00 | 0.00 | 93 | 1005.3 |
| 20260507030024 | 7 | 54 | 0.0 | 0.0 | 0.00 | 0.00 | 0.00 | 93 | 1005.4 |
| 20260507024525 | 7 | 54 | 0.0 | 0.0 | 0.00 | 0.00 | 0.00 | 93 | 1005.2 |
| 20260507023022 | 7 | 54 | 0.0 | 0.0 | 0.00 | 0.00 | 0.00 | 93 | 1004.9 |
| 20260507021528 | 7 | 54 | 0.0 | 0.0 | 0.00 | 0.00 | 0.00 | 92 | 1004.9 |
| 20260507020020 | 7 | 54 | 0.0 | 0.0 | 0.00 | 0.00 | 0.00 | 92 | 1005.1 |
| 20260507014522 | 7 | 54 | 0.0 | 0.0 | 0.00 | 0.00 | 0.00 | 92 | 1005.1 |
| 20260507013022 | 7 | 54 | 0.0 | 0.0 | 0.00 | 0.00 | 0.00 | 91 | 1004.9 |
| 20260507011522 | 7 | 54 | 0.0 | 0.0 | 0.00 | 0.00 | 0.00 | 91 | 1004.9 |
| 20260507010024 | 7 | 54 | 0.0 | 0.0 | 0.00 | 0.00 | 0.00 | 91 | 1004.9 |
| 20260507004516 | 7 | 54 | 0.0 | 0.0 | 0.00 | 0.00 | 0.00 | 90 | 1004.8 |
| 20260507003016 | 7 | 54 | 0.0 | 0.0 | 0.00 | 0.00 | 0.00 | 91 | 1004.9 |
| 20260507001515 | 7 | 54 | 0.0 | 0.0 | 0.00 | 0.00 | 0.00 | 90 | 1004.9 |
| 20260507000018 | 8 | 54 | 0.0 | 0.0 | 0.00 | 0.00 | 0.00 | 90 | 1004.9 |
| 20260506234510 | 8 | 54 | 0.0 | 0.0 | 0.00 | 0.00 | 0.00 | 90 | 1004.9 |
| 20260506233010 | 8 | 54 | 0.0 | 0.0 | 0.00 | 0.00 | 0.00 | 90 | 1004.9 |
| 20260506231508 | 8 | 56 | 0.0 | 0.0 | 0.00 | 0.00 | 0.00 | 89 | 1004.9 |
| 20260506230007 | 8 | 56 | 0.0 | 0.0 | 0.00 | 0.00 | 0.00 | 89 | 1005.0 |
| 20260506224505 | 8 | 56 | 0.0 | 0.0 | 0.00 | 0.00 | 0.00 | 87 | 1004.9 |
| 20260506223002 | 8 | 56 | 0.0 | 0.0 | 0.00 | 0.00 | 0.00 | 87 | 1005.0 |
| 20260506221605 | 9 | 56 | 0.0 | 0.0 | 0.00 | 0.00 | 0.00 | 86 | 1004.8 |
| 20260506220058 | 9 | 70 | 0.0 | 0.0 | 0.00 | 0.00 | 0.00 | 86 | 1004.6 |
| 20260506214600 | 10 | 44 | 0.0 | 0.0 | 0.00 | 0.00 | 0.00 | 86 | 1004.6 |
| 20260506213059 | 10 | 72 | 0.0 | 0.0 | 0.00 | 0.00 | 0.00 | 85 | 1004.5 |
| 20260506211556 | 10 | 70 | 0.0 | 1.6 | 0.00 | 0.00 | 0.00 | 85 | 1004.4 |
| 20260506210051 | 10 | 69 | 0.0 | 0.0 | 0.00 | 0.00 | 0.00 | 86 | 1004.3 |
| 20260506204550 | 10 | 62 | 0.0 | 0.0 | 0.00 | 0.00 | 0.00 | 85 | 1004.3 |
| 20260506203052 | 10 | 88 | 0.0 | 0.0 | 0.00 | 0.00 | 0.00 | 85 | 1004.3 |
| 20260506201552 | 11 | 49 | 0.0 | 0.0 | 0.00 | 0.00 | 0.00 | 85 | 1004.4 |
| 20260506200048 | 11 | 29 | 0.0 | 0.0 | 0.00 | 0.00 | 0.00 | 85 | 1004.4 |
| 20260506194549 | 11 | 360 | 0.0 | 0.0 | 0.00 | 0.00 | 0.00 | 84 | 1004.5 |
| 20260506193053 | 11 | 337 | 0.0 | 1.6 | 0.00 | 0.00 | 0.00 | 84 | 1004.4 |
| 20260506191548 | 12 | 346 | 0.0 | 12.9 | 0.00 | 0.00 | 0.00 | 82 | 1004.6 |
| 20260506190050 | 12 | 354 | 0.0 | 0.0 | 0.00 | 0.00 | 0.00 | 81 | 1004.2 |
| 20260506184546 | 12 | 2 | 0.0 | 0.0 | 0.00 | 0.00 | 0.00 | 80 | 1003.8 |
| 20260506183046 | 12 | 333 | 0.0 | 0.0 | 0.00 | 0.00 | 0.00 | 80 | 1003.5 |
| 20260506181600 | 13 | 71 | 0.0 | 12.9 | 0.00 | 0.00 | 0.00 | 79 | 1002.9 |
| 20260506180045 | 13 | 83 | 0.0 | 8.0 | 0.00 | 0.00 | 0.00 | 79 | 1003.0 |
| 20260506174544 | 13 | 46 | 0.0 | 4.8 | 0.00 | 0.00 | 0.00 | 78 | 1003.1 |
| 20260506173111 | 13 | 91 | 0.0 | 14.5 | 0.00 | 0.00 | 0.00 | 77 | 1002.9 |
| 20260506171544 | 13 | 47 | 0.0 | 4.8 | 0.00 | 0.00 | 0.00 | 74 | 1003.0 |
| 20260506170100 | 13 | 56 | 0.0 | 19.3 | 0.00 | 0.00 | 0.00 | 74 | 1003.1 |
| 20260506164541 | 13 | 61 | 0.0 | 16.1 | 0.00 | 0.00 | 0.00 | 74 | 1003.0 |
| 20260506163050 | 14 | 356 | 0.0 | 17.7 | 0.00 | 0.00 | 0.00 | 73 | 1003.2 |
| 20260506161540 | 14 | 337 | 0.0 | 16.1 | 0.00 | 0.00 | 0.00 | 72 | 1003.3 |
| 20260506160042 | 14 | 33 | 0.0 | 17.7 | 0.00 | 0.00 | 0.00 | 74 | 1003.4 |
| 20260506154547 | 14 | 71 | 0.0 | 12.9 | 0.00 | 0.00 | 0.00 | 75 | 1003.5 |
| 20260506153034 | 14 | 70 | 0.0 | 8.0 | 0.00 | 0.00 | 0.00 | 76 | 1003.8 |
| 20260506151534 | 14 | 62 | 0.0 | 16.1 | 0.00 | 0.00 | 0.00 | 78 | 1003.9 |
| 20260506150031 | 15 | 66 | 0.0 | 4.8 | 0.00 | 0.00 | 0.00 | 79 | 1004.1 |
| 20260506144537 | 15 | 47 | 0.0 | 9.7 | 0.00 | 0.00 | 0.00 | 74 | 1004.8 |
| 20260506143031 | 16 | 74 | 0.0 | 9.7 | 0.00 | 0.00 | 0.00 | 70 | 1004.7 |
| 20260506141530 | 17 | 25 | 1.6 | 14.5 | 0.00 | 0.00 | 0.00 | 64 | 1004.5 |
| 20260506140033 | 18 | 56 | 1.6 | 12.9 | 0.00 | 0.00 | 0.00 | 56 | 1004.3 |
| 20260506134527 | 18 | 35 | 3.2 | 9.7 | 0.00 | 0.00 | 0.00 | 55 | 1004.3 |
| 20260506133035 | 19 | 54 | 0.0 | 9.7 | 0.00 | 0.00 | 0.00 | 54 | 1004.4 |
| 20260506131524 | 19 | 1 | 1.6 | 14.5 | 0.00 | 0.00 | 0.00 | 53 | 1004.6 |
| 20260506130022 | 20 | 35 | 3.2 | 14.5 | 0.00 | 0.00 | 0.00 | 53 | 1004.8 |
| 20260506124518 | 19 | 82 | 0.0 | 11.3 | 0.00 | 0.00 | 0.00 | 54 | 1005.0 |
| 20260506123119 | 18 | 339 | 0.0 | 9.7 | 0.00 | 0.00 | 0.00 | 53 | 1005.2 |
| 20260506121516 | 19 | 351 | 3.2 | 17.7 | 0.00 | 0.00 | 0.00 | 52 | 1005.3 |
| 20260506120013 | 18 | 33 | 0.0 | 11.3 | 0.00 | 0.00 | 0.00 | 54 | 1005.5 |
| 20260506114511 | 18 | 68 | 0.0 | 4.8 | 0.00 | 0.00 | 0.00 | 54 | 1005.5 |
| 20260506113008 | 17 | 79 | 0.0 | 16.1 | 0.00 | 0.00 | 0.00 | 54 | 1005.9 |
| 20260506111504 | 17 | 75 | 1.6 | 6.4 | 0.00 | 0.00 | 0.00 | 56 | 1006.2 |
| 20260506110003 | 17 | 59 | 1.6 | 20.9 | 0.00 | 0.00 | 0.00 | 57 | 1006.3 |
| 20260506104504 | 17 | 82 | 1.6 | 19.3 | 0.00 | 0.00 | 0.00 | 56 | 1006.4 |
| 20260506103110 | 17 | 83 | 4.8 | 20.9 | 0.00 | 0.00 | 0.00 | 56 | 1006.5 |
| 20260506101559 | 17 | 73 | 1.6 | 20.9 | 0.00 | 0.00 | 0.00 | 56 | 1006.7 |
| 20260506100056 | 17 | 30 | 0.0 | 12.9 | 0.00 | 0.00 | 0.00 | 55 | 1006.8 |
| 20260506094552 | 16 | 20 | 0.0 | 9.7 | 0.00 | 0.00 | 0.00 | 57 | 1006.7 |
| 20260506093049 | 16 | 36 | 0.0 | 6.4 | 0.00 | 0.00 | 0.00 | 59 | 1006.7 |
| 20260506091549 | 16 | 37 | 0.0 | 22.5 | 0.00 | 0.00 | 0.00 | 58 | 1006.5 |
| 20260506090048 | 16 | 341 | 4.8 | 14.5 | 0.00 | 0.00 | 0.00 | 58 | 1006.7 |
| 20260506084544 | 15 | 47 | 1.6 | 9.7 | 0.00 | 0.00 | 0.00 | 58 | 1006.9 |
| 20260506083044 | 15 | 6 | 3.2 | 14.5 | 0.00 | 0.00 | 0.00 | 60 | 1007.0 |
| 20260506081539 | 15 | 69 | 0.0 | 12.9 | 0.00 | 0.00 | 0.00 | 61 | 1007.2 |
| 20260506073034 | 14 | 15 | 3.2 | 14.5 | 0.00 | 0.00 | 0.00 | 61 | 1007.5 |
| 20260506071528 | 13 | 33 | 1.6 | 9.7 | 0.00 | 0.00 | 0.00 | 62 | 1007.5 |